Location: Enborne
(51.3833°N, 1.3667°W)
Time: 12:03:58
(UTC+00:00)

Cosmos 1634 Rocket - Pass Details

Date: 18 September 2020
Orbit: 961 x 991 km, 82.9° (Epoch: 21 October)

Event Time Altitude Azimuth Distance (km) Brightness Sun altitude
Exits shadow 21:19:02 28° 210° (SSW) 1,727 5.1 -27.3°
Maximum altitude 21:22:23 65° 283° (WNW) 1,059 4.3 -27.6°
Drops below altitude 10° 21:28:35 10° 6° (N) 2,719 6.8 -28.3°
Sets 21:31:08 0° 9° (N) 3,674 7.5 -28.6°
